This demonstration page uses our WeatherBlox Daily Observations layout. Learn more.

Left ArrowRight Arrow

38.20091, -84.87328

Hourly Observations for July 27, 2022

Temp ( °F °C ) Dew Point ( °F °C ) Humidity (%) Winds ( mph kmh ) Pressure ( in mb ) Visibility ( mi km ) Precip ( " mm )
12:04 am 00:04 Cloudy 75 23.9 71 21.7 88 88 SSW 5 7 29.99 1016 10 16 0.00 0.00
12:53 am 00:53 Mostly Cloudy 74 23.3 71 21.7 91 91 SW 3 6 30.00 1016 10 16 0.00 0.00
1:53 am 01:53 Cloudy 74 23.3 72 22.2 94 94 SSW 3 6 29.99 1016 10 16 0.00 0.00
2:53 am 02:53 Mostly Cloudy 74 23.3 71 21.7 91 91 SSW 5 7 29.98 1015 10 16 0.00 0.00
3:53 am 03:53 Mostly Clear 74 23.3 71 21.7 91 91 SSW 5 7 29.95 1014 10 16 0.00 0.00
4:53 am 04:53 Mostly Cloudy 75 23.9 72 22.2 90 90 SSW 6 9 29.95 1014 10 16 0.00 0.00
5:24 am 05:24 Mostly Cloudy with Nearby Thunderstorms 75 23.9 71 21.7 88 88 SSW 7 11 29.94 1014 10 16 0.00 0.00
5:53 am 05:53 Mostly Cloudy with Nearby Thunderstorms 76 24.4 71 21.7 85 85 Calm 29.95 1014 10 16 0.00 0.00
6:15 am 06:15 Cloudy 75 23.9 71 21.7 88 88 S 5 7 29.93 1014 10 16 0.00 0.00
6:53 am 06:53 Mostly Cloudy 75 23.9 72 22.2 90 90 SSW 7 11 29.94 1014 10 16 0.00 0.00
7:53 am 07:53 Mostly Sunny 75 23.9 72 22.2 90 90 S 6 9 29.94 1014 10 16 0.00 0.00
8:53 am 08:53 Cloudy 78 25.6 73 22.8 85 85 SW 8 13 29.94 1014 10 16 0.00 0.00
9:53 am 09:53 Cloudy 80 26.7 74 23.3 82 82 SW 10 17 29.97 1015 10 16 0.00 0.00
10:04 am 10:04 Cloudy 80 26.7 74 23.3 82 82 SW 13 20 29.96 1015 10 16 0.00 0.00
10:27 am 10:27 Cloudy with Nearby Thunderstorms 81 27.2 74 23.3 79 79 SW 10 17 29.97 1015 10 16 0.00 0.00
10:42 am 10:42 Cloudy 80 26.7 74 23.3 82 82 W 10 17 29.97 1015 10 16 0.00 0.00
10:53 am 10:53 Cloudy 80 26.7 74 23.3 82 82 W 10 17 29.99 1016 10 16 0.00 0.00
11:08 am 11:08 Cloudy with Heavy Rain 79 26.1 74 23.3 85 85 WNW 9 15 29.98 1015 2 3 0.06 1.52
11:19 am 11:19 Cloudy with Heavy Rain 77 25 74 23.3 90 90 W 8 13 29.99 1015 1 1 0.20 5.08
11:26 am 11:26 Cloudy with Rain 77 25 74 23.3 90 90 WSW 7 11 29.99 1015 1 2 0.24 6.10
11:31 am 11:31 Cloudy with Light Rain 77 25 74 23.3 90 90 W 6 9 29.98 1015 4 6 0.24 6.10
11:39 am 11:39 Mostly Cloudy 78 25.6 75 23.9 90 90 W 3 6 29.98 1015 10 16 0.24 6.10
11:53 am 11:53 Mostly Cloudy 78 25.6 75 23.9 90 90 WSW 5 7 30.00 1016 10 16 0.24 6.10
12:53 pm 12:53 Partly Cloudy 80 26.7 72 22.2 76 76 WNW 3 6 29.98 1015 10 16 0.00 0.00
1:42 pm 13:42 Mostly Cloudy 84 28.9 76 24.4 77 77 VRB 3 6 29.93 1013 10 16 0.00 0.00
1:53 pm 13:53 Mostly Cloudy 83 28.3 75 23.9 77 77 WSW 6 9 29.94 1014 10 16 0.00 0.00
2:20 pm 14:20 Mostly Cloudy 84 28.9 75 23.9 74 74 WNW 7 11 29.94 1014 10 16 0.00 0.00
2:53 pm 14:53 Partly Cloudy 84 28.9 75 23.9 74 74 WNW 7 11 29.94 1014 10 16 0.00 0.00
3:53 pm 15:53 Mostly Sunny 86 30 74 23.3 67 67 WSW 7 11 29.93 1013 10 16 0.00 0.00
4:53 pm 16:53 Mostly Sunny 88 31.1 75 23.9 66 66 VRB 7 11 29.91 1013 10 16 0.00 0.00
5:53 pm 17:53 Mostly Cloudy 86 30 74 23.3 67 67 WNW 3 6 29.91 1013 10 16 0.00 0.00
6:53 pm 18:53 Partly Cloudy 85 29.4 72 22.2 65 65 NW 9 15 29.90 1013 10 16 0.01 0.25
7:53 pm 19:53 Sunny 84 28.9 72 22.2 67 67 WNW 5 7 29.89 1012 10 16 0.00 0.00
8:53 pm 20:53 Sunny 82 27.8 72 22.2 72 72 Calm 29.90 1013 10 16 0.00 0.00
9:53 pm 21:53 Mostly Cloudy 78 25.6 74 23.3 87 87 Calm 29.92 1013 10 16 0.00 0.00
10:53 pm 22:53 Mostly Clear 78 25.6 74 23.3 87 87 Calm 29.93 1014 10 16 0.00 0.00
11:53 pm 23:53 Mostly Cloudy 78 25.6 75 23.9 90 90 SSW 3 6 29.94 1014 10 16 0.00 0.00

Powered by AerisWeather